Retour au catalogue

COSMOS 1027

ActifMilitairePO
NORAD 10991·PAYLOAD·🇷🇺 Russia

Lancé Jul 27, 1978 depuis Plesetsk Cosmodrome

Loading…

Prochains Passages (prochaines 24 heures)

TLE

FraisSource: Space-Track

Époque: Sep 14, 2026, 14:04 UTC

1 10991U 78074A   26257.58630082  .00000058  00000-0  43269-4 0  9991
2 10991  82.9368 310.7622 0027703 135.7459  29.0092 13.76701872417402

Suivez COSMOS 1027 en temps réel avec AllMySat

Download on the App Store